Regional Weather Roundup
Issued by NWS

Home | Current Version | Previous Version | Graphics & Text | Print | Product List | Glossary On
Versions: 1 2 3 4 5 6 7 8 9 10 11 12 13 14 15 16 17 18 19 20 21 22 23 24 25 26 27 28 29 30 31 32 33 34 35 36 37 38 39 40 41 42 43 44 45 46 47 48 49 50
000
ASUS43 KIND 260609
RWRIN

WEATHER ROUNDUP FOR INDIANA
NATIONAL WEATHER SERVICE INDIANAPOLIS IN
200 AM EDT TUE JUL 26 2016

NOTE: "FAIR" INDICATES FEW OR NO CLOUDS BELOW 12,000 FEET WITH NO
SIGNIFICANT WEATHER AND/OR OBSTRUCTIONS TO VISIBILITY.

* - STATION DOES NOT REPORT WEATHER SUCH AS PRECIPITATION OR FOG.

+ - STATION NOT QUALITY CONTROLLED BY THE NATIONAL WEATHER SERVICE.
    USE DATA WITH CAUTION...ESPECIALLY DEWPOINT AND RELATIVE
    HUMIDITY OBSERVATIONS.

INZ001>003-010>013-019-020-260700-
NORTHWEST INDIANA

CITY           SKY/WX    TMP DP  RH WIND       PRES   REMARKS
GARY /AIRPORT/ CLOUDY    70  70 100 CALM      30.04R
KNOX *+        PTCLDY    64  63  94 CALM      30.03S
LA PORTE +     CLOUDY   N/A N/A N/A CALM      30.05S
MICHIGAN CITY+ CLOUDY    64  64 100 CALM      30.04S
MONTICELLO +   CLOUDY    66  62  86 CALM      30.02S
6HR MIN TEMP:  66; 6HR MAX TEMP:  79;

RENSSELAER +   CLEAR     68  66  94 CALM      30.04S
VALPARAISO     CLOUDY    68  65  90 CALM      30.04S
6HR MIN TEMP:  68; 6HR MAX TEMP:  81;


$$

LMZ046-743>745-260700-
SOUTHERN LAKE MICHIGAN

STATION/POSITION TIME  TEMP    WIND        PRES    WAVE
                       AIR SEA DIR/SP/G            HT
                 (UTC) (F)     (DEG/KT/KT) (MB)    (FT)
BURNS HARBOR     0600   76     180/  3/  7 1017.3S
MICHIGAN CITY    0500   74     130/  4/  5   N/A
5NW MICH CITY    0600   75 75  160/  2/  4   N/A     1

$$

INZ004-005-014>016-021>024-260700-
NORTH CENTRAL INDIANA

CITY           SKY/WX    TMP DP  RH WIND       PRES   REMARKS
GOSHEN         PTCLDY    65  62  90 CALM      30.03S
6HR MIN TEMP:  65; 6HR MAX TEMP:  81;

LOGANSPORT +   CLOUDY    68  63  83 CALM      30.04S
PERU/GRISSOM   CLOUDY    67  65  95 CALM      30.02S
6HR MIN TEMP:  65; 6HR MAX TEMP:  81;

ROCHESTER +    CLOUDY    68  66  94 CALM      30.05R
SOUTH BEND     PTCLDY    66  63  90 CALM      30.04S
6HR MIN TEMP:  65; 6HR MAX TEMP:  80;

WARSAW +       PTCLDY    64  63  94 CALM      30.04R

$$

INZ006>009-017-018-025>027-260700-
NORTHEAST INDIANA

CITY           SKY/WX    TMP DP  RH WIND       PRES   REMARKS
ANGOLA *+        N/A     63  63 100 CALM      30.03S
AUBURN +       CLOUDY    68  61  77 CALM      30.04R
FORT WAYNE     CLOUDY    68  62  81 N3        30.03S
6HR MIN TEMP:  67; 6HR MAX TEMP:  83;

HUNTINGTON +   CLOUDY    65  64  94 CALM      30.03R
6HR MIN TEMP:  65; 6HR MAX TEMP:  80;


$$

INZ028-029-035-036-043>045-051>053-260700-
WEST CENTRAL INDIANA

CITY           SKY/WX    TMP DP  RH WIND       PRES   REMARKS
CRAWFORDSVL +  MOCLDY    69  69 100 NE3       30.03S
6HR MIN TEMP:  68; 6HR MAX TEMP:  81;

GREENCASTLE +  CLOUDY    73  72  94 NE3       30.04S
LAFAYETTE      CLOUDY    68  67  96 CALM      30.02S
6HR MIN TEMP:  67; 6HR MAX TEMP:  81;

TERRE HAUTE    PTCLDY    75  72  90 CALM      30.02R
6HR MIN TEMP:  74; 6HR MAX TEMP:  84;


$$

INZ030>032-037>040-046>048-054>057-064-065-260700-
CENTRAL INDIANA

CITY           SKY/WX    TMP DP  RH WIND       PRES   REMARKS
INDIANAPOLIS   CLOUDY    77  68  73 N7        30.03R
6HR MIN TEMP:  77; 6HR MAX TEMP:  84;

-EAGLE CREEK   CLOUDY    77  67  71 CALM      30.03R
6HR MIN TEMP:  77; 6HR MAX TEMP:  84;

KOKOMO *+      PTCLDY    64  61  88 CALM      30.04S
6HR MIN TEMP:  64; 6HR MAX TEMP:  81;

MARION +       MOCLDY    64  63  96 CALM      30.04S
MT COMFORT *+  CLOUDY    70  70 100 CALM      30.04S
SHELBYVILLE    CLOUDY    76  72  87 CALM      30.02R
6HR MIN TEMP:  76; 6HR MAX TEMP:  85;

ZIONSVILLE +   CLOUDY    69  67  94 N3        30.05S
6HR MIN TEMP:  68; 6HR MAX TEMP:  78;


$$

INZ033-034-041-042-049-050-058-059-260700-
EAST CENTRAL INDIANA

CITY           SKY/WX    TMP DP  RH WIND       PRES   REMARKS
MUNCIE         MOCLDY    71  66  84 NW5       30.04R
6HR MIN TEMP:  71; 6HR MAX TEMP:  84;


$$

INZ060-061-067>069-081>083-085>088-260700-
SOUTHWEST INDIANA

CITY           SKY/WX    TMP DP  RH WIND       PRES   REMARKS
EVANSVILLE     CLOUDY    74  72  93 CALM      30.00F
6HR MIN TEMP:  74; 6HR MAX TEMP:  80;

HUNTINGBURG *+ CLOUDY    75  72  88 CALM      30.01F
6HR MIN TEMP:  75; 6HR MAX TEMP:  79;

WASHINGTON +   PTCLDY    76  76 100 MISG      30.00F
6HR MIN TEMP:  76; 6HR MAX TEMP:  80;


$$

INZ062-063-066-070>080-084-089>092-260700-
SOUTH CENTRAL AND SOUTHEAST INDIANA

CITY           SKY/WX    TMP DP  RH WIND       PRES   REMARKS
BLOOMINGTON    CLOUDY    76  73  91 CALM      30.03R
6HR MIN TEMP:  75; 6HR MAX TEMP:  84;

MADISON *+     PTCLDY    73  72  94 CALM      30.04S

$$




USA.gov is the U.S. government's official web portal to all federal, state and local government web resources and services.